Regional Weather Roundup
Issued by NWS

Home | Current Version | Previous Version | Text Only | Print | Product List | Glossary Off
Versions: 1 2 3 4 5 6 7 8 9 10 11 12 13 14 15 16 17 18 19 20 21 22 23 24 25 26 27 28 29 30 31 32 33 34 35 36 37 38 39 40 41 42 43 44 45 46 47 48 49 50

000
ASUS43 KDTX 250210
RWRMI
MICHIGAN HOURLY REGIONAL WEATHER ROUNDUP
NATIONAL WEATHER SERVICE DETROIT/PONTIAC MI
1000 PM EDT THU JUL 24 2014

NOTE: "FAIR" INDICATES FEW OR NO CLOUDS BELOW 12,000 FEET WITH NO
SIGNIFICANT WEATHER AND/OR OBSTRUCTION TO VISIBILITY.

MIZ047>049-052>055-059>063-066>070-074>076-081>083-250300-
SOUTHEAST LOWER MICHIGAN

CITY           SKY/WX    TMP DP  RH WIND       PRES   REMARKS
ADRIAN         CLEAR     62  51  67 CALM      30.07F
ALMA           CLEAR     59  54  83 CALM      30.06R
ANN ARBOR      CLEAR     58  49  72 CALM      30.07S
BAD AXE        CLEAR     60  50  70 CALM      30.07S
CARO           CLEAR     57  55  94 CALM      30.06S
DETROIT CITY   CLEAR     68  50  52 CALM      30.07S
DETROIT        MOCLDY    69  51  52 SE3       30.07R
FLINT          CLEAR     62  49  62 SE5       30.06F
GROSSE ILE     MOCLDY    70  55  60 SW5       30.06S
HILLSDALE      PTCLDY    57  55  92 CALM      30.08S
HOWELL         CLEAR     62  51  66 CALM      30.07S

CITY           SKY/WX    TMP DP  RH WIND       PRES   REMARKS
JACKSON        CLEAR     60  54  80 CALM      30.07F
LAMBERTVILLE   PTCLDY    61  54  77 CALM      30.08S
LANSING        CLEAR     61  53  75 CALM      30.07F
LAPEER         NOT AVBL
MASON          PTCLDY    62  53  73 CALM      30.07S
MONROE         MOCLDY    63  54  72 CALM      30.05F
MT. CLEMENS    CLEAR     62  49  62 NE7       30.06S
PONTIAC        PTCLDY    62  50  64 CALM      30.07S
PORT HOPE        N/A     59  51  75 CALM      30.05S
PORT HURON     CLEAR     52  50  93 CALM      30.08S
TRI CITIES     CLEAR     66  51  58 S6        30.06S
TROY           CLEAR     68  49  50 CALM      30.08S
SAGINAW HB     CLEAR     63  52  67 CALM      30.05S
$$
MIZ043>046-050>051-056>058-064>065-071>073-077>080-250300-
SOUTHWEST LOWER MICHIGAN

CITY           SKY/WX    TMP DP  RH WIND       PRES   REMARKS
BATTLE CREEK   CLEAR     64  53  67 NW7       30.08R
BENTON HARBOR  CLEAR     55  52  89 CALM      30.09S
BIG RAPIDS     CLEAR     62  48  61 CALM      30.06S
COLDWATER      CLEAR     60  56  85 CALM      30.07R
FREMONT        FAIR      59  49  68 CALM      30.07F
HOLLAND        CLEAR     58  51  78 CALM      30.09S
GRAND RAPIDS   PTCLDY    66  49  54 W7        30.08R
IONIA          FAIR      63  53  68 W6        30.07R
KALAMAZOO      CLEAR     64  51  62 W6        30.09R
LUDINGTON      CLEAR     59  53  80 SW7       30.07S
MARSHALL       CLEAR     60  54  79 CALM      30.06S
MOUNT PLEASANT CLEAR     60  55  83 CALM      30.05R
MUSKEGON       MOCLDY    58  49  72 W3        30.08S
SOUTH HAVEN    CLEAR     56  53  91 CALM      30.09R
$$
MIZ016>042-250300-
NORTHERN LOWER MICHIGAN

CITY           SKY/WX    TMP DP  RH WIND       PRES   REMARKS
ALPENA         CLEAR     61  52  72 CALM      30.05R
BEAVER ISLAND  CLEAR     58  49  73 S3        30.03S
BELLAIRE       CLEAR     55  51  85 CALM      30.04R
CADILLAC       CLEAR     58  50  77 CALM      30.07S
CHARLEVOIX     CLEAR     57  51  79 S3        30.06F
FRANKFORT      CLEAR     56  50  79 CALM      30.05S
GAYLORD        CLEAR     58  49  72 CALM      30.06S
GRAYLING       CLEAR     56  53  88 CALM      30.08R
HARBOR SPRINGS CLEAR     59  51  74 CALM      30.04S
HOUGHTON LAKE  CLEAR     60  52  74 NW6       30.06R
MANISTEE       CLEAR     55  46  71 CALM      30.06S
OSCODA         CLEAR     62  51  66 CALM      30.03S
PELLSTON       CLOUDY    56  50  80 CALM      30.04S
ROGERS CITY    CLEAR     60  53  76 CALM      30.05S
TRAVERSE CITY  PTCLDY    62  49  62 SE5       30.03S
$$
MIZ007>008-015-250300-
EASTERN UPPER MICHIGAN

CITY           SKY/WX    TMP DP  RH WIND       PRES   REMARKS
KINROSS        CLEAR     61  50  67 SW5       30.03R
MACKINAC ISLAN CLEAR     60  53  77 SW8       30.03S
NEWBERRY       CLEAR     56  47  72 S5        30.01S
S. S. MARIE    CLEAR     56  49  77 CALM      30.01F
MUNISING         N/A     66  49  54 S9        29.98S
$$
MIZ004>006-011>014-085-250300-
CENTRAL UPPER MICHIGAN

CITY           SKY/WX    TMP DP  RH WIND       PRES   REMARKS
MANISTIQUE     CLEAR     57  52  82 S6        30.01S
ESCANABA       CLEAR     63  52  67 S6        30.00S
MENOMINEE      MOCLDY    64  46  52 S10       30.00S
SAWYER-GWINN   CLEAR     64  54  68 S6        30.00S
$$
MIZ001>003-009>011-084-250300-
WESTERN UPPER MICHIGAN

CITY           SKY/WX    TMP DP  RH WIND       PRES   REMARKS
IRON MOUNTAIN  PTCLDY    66  52  60 S3        29.98S
HOUGHTON       CLEAR     58  52  80 NW3       29.97S
COPPER HARBOR    N/A     62  50  64 SW5       29.96S
$$

ABBREVIATIONS USED IN REMARKS
   TC - TEMPERATURE IN CELSIUS
  WCI - WIND CHILL INDEX
   HX - HEAT INDEX
  VSB - VISIBILITY




USA.gov is the U.S. government's official web portal to all federal, state and local government web resources and services.